Home   Weather   Edinburgh   Past weeks

Flag for United Kingdom Past Weather in Edinburgh, Scotland, United Kingdom — Yesterday and Last 2 Weeks

Now
36 °F

Clear.


Feels Like: 33 °F
Forecast: 30 / 41 °F
Wind: 3 mph from North

Location: Edinburgh Airport

Current Time: Jan 23, 2017 at 10:58:33 am

Latest Report: Jan 23, 2017 at 10:20 am


Visibility: 6 mi

Pressure: 30.30 "Hg

Humidity: 81%

Dew Point: 30 °F

Location of EdinburghLocation

Past Weather in Edinburgh — Graph

°F

Edinburgh Temperature Yesterday

Maximum temperature yesterday: 37 °F (at 12:20 pm)
Minimum temperature yesterday: 34 °F (at 12:20 am)
Average temperature yesterday: 36 °F

High & Low Weather Summary for the Past Weeks

 TemperatureHumidityPressure
High52 °F (Jan 9, 1:20 am)100% (Jan 14, 9:50 pm)30.60 "Hg (Jan 14, 9:50 pm)
Low25 °F (Jan 21, 4:50 am)56% (Jan 13, 1:20 pm)29.33 "Hg (Jan 11, 12:50 am)
Average41 °F86%30.10 "Hg
* Reported Jan 8 9:20 am — Jan 23 9:50 am, Edinburgh, Weather by CustomWeather, © 2017

Note: Actual official high and low records may vary slightly from our data, if they occured in-between our weather recording intervals... More about our weather records

Advertising

Edinburgh Weather History for the Previous 24 Hours

Scroll right to see more
 ConditionsComfort  
Time TempWeatherWind HumidityBarometerVisibility
9:50 am
Mon, Jan 23
32 °FClear.5 mph93%30.30 "Hg5 mi
9:20 am30 °FClear.6 mph93%30.30 "Hg4 mi
8:50 am28 °FClear.5 mph93%30.30 "Hg4 mi
8:20 am30 °FClear.5 mph93%30.27 "Hg4 mi
7:50 am32 °FClear.3 mph87%30.27 "Hg4 mi
7:20 am30 °FPassing clouds.7 mph93%30.27 "Hg5 mi
6:50 am32 °FPassing clouds.6 mph87%30.27 "Hg4 mi
6:20 am34 °FPassing clouds.3 mph93%30.27 "Hg4 mi
5:50 am34 °FPassing clouds.6 mph87%30.27 "Hg4 mi
5:20 am34 °FPassing clouds.5 mph93%30.27 "Hg3 mi
4:50 am37 °FOvercast.3 mph87%30.27 "Hg4 mi
4:20 am37 °FOvercast.3 mph87%30.27 "Hg4 mi
3:50 am37 °FOvercast.5 mph87%30.27 "Hg4 mi
3:20 am39 °FOvercast.6 mph81%30.27 "Hg4 mi
2:50 am37 °FOvercast.2 mph87%30.27 "Hg4 mi
2:20 am37 °FOvercast.5 mph93%30.27 "Hg4 mi
1:50 am37 °FOvercast.7 mph93%30.27 "Hg4 mi
1:20 am37 °FOvercast.6 mph93%30.30 "Hg4 mi
12:50 am37 °FOvercast.7 mph93%30.30 "Hg4 mi
12:20 am37 °FPassing clouds.6 mph93%30.27 "Hg4 mi
11:50 pm
Sun, Jan 22
37 °FClear.7 mph93%30.27 "Hg5 mi
11:20 pm37 °FClear.8 mph93%30.27 "Hg4 mi
10:50 pm37 °FClear.8 mph93%30.27 "Hg4 mi
10:20 pm37 °FClear.7 mph93%30.27 "Hg4 mi
9:50 pm37 °FOvercast.7 mph93%30.27 "Hg4 mi
9:20 pm37 °FOvercast.7 mph93%30.27 "Hg4 mi
8:50 pm37 °FOvercast.6 mph93%30.27 "Hg4 mi
8:20 pm37 °FOvercast.7 mph93%30.27 "Hg4 mi
7:50 pm37 °FOvercast.7 mph93%30.24 "Hg4 mi
7:20 pm37 °FOvercast.6 mph93%30.24 "Hg4 mi
6:50 pm37 °FOvercast.8 mph93%30.24 "Hg4 mi
6:20 pm37 °FOvercast.7 mph93%30.24 "Hg4 mi
5:50 pm37 °FMostly cloudy.7 mph93%30.24 "Hg4 mi
5:20 pm37 °FMostly cloudy.5 mph93%30.24 "Hg4 mi
4:50 pm37 °FMostly cloudy.6 mph93%30.24 "Hg4 mi
4:20 pm37 °FLight rain. More clouds than sun.9 mph93%30.21 "Hg4 mi
3:50 pm37 °FMostly cloudy.7 mph93%30.21 "Hg4 mi
3:20 pm37 °FMostly cloudy.6 mph93%30.21 "Hg5 mi
2:50 pm37 °FMostly cloudy.6 mph93%30.21 "Hg6 mi
2:20 pm37 °FMostly cloudy.7 mph93%30.21 "Hg6 mi
1:50 pm37 °FLow clouds.6 mph93%30.21 "Hg4 mi
1:20 pm37 °FFog.5 mph93%30.21 "Hg3 mi
12:50 pm37 °FFog.3 mph93%30.21 "Hg2 mi
12:20 pm37 °FFog.3 mph93%30.21 "Hg2 mi
11:50 am36 °FFog.3 mph93%30.21 "Hg2 mi
11:20 am36 °FFog.6 mph100%30.21 "Hg2 mi
10:50 am36 °FFog.3 mph100%30.21 "Hg2 mi
10:20 am36 °FFog.3 mph100%30.21 "Hg1 mi
Weather by CustomWeather, © 2017

See weather overviewHow to use our weather pages